Location: Acton
(51.4942°N, 0.2232°W)
Time: 23:05:59
(UTC+00:00)

USA 186 - Pass Details

Date: 18 September 2020
Orbit: 261 x 425 km, 96.9° (Epoch: 12 October)

Event Time Altitude Azimuth Distance (km) Brightness Sun altitude
Exits shadow 20:20:54 - 212° (SSW) 1,668 4.8 -20.5°
Reaches altitude 10° 20:21:33 10° 220° (SW) 1,452 4.6 -20.6°
Maximum altitude 20:23:53 19° 268° (W) 1,047 4.4 -20.9°
Drops below altitude 10° 20:26:18 10° 317° (NW) 1,510 5.6 -21.3°
Sets 20:28:46 0° 335° (NNW) 2,398 6.5 -21.6°
